(369598) = 2003 BC70 = 2011 CF31

Discovered at Kitt Peak on 2003-01-30 by Spacewatch.

Orbit

Orbit type: Main Belt

Note: WebGL enabled browser required.

epoch2023-02-25.0
epoch JD2460000.5
perihelion date2022-08-01.62968
perihelion JD2459793.12968
argument of perihelion (°)339.97451
ascending node (°)92.91066
inclination (°)1.02520
eccentricity0.1425411
perihelion distance (AU)2.1622717
Tisserand w.r.t. Jupiter3.4
ΔV w.r.t. Earth (km/sec)9.2
semimajor axis (AU)2.5217205
mean anomaly (°)51.03934
mean daily motion (°/day)0.24612650
aphelion distance (AU)2.881
period (years)4.0
P-vector [x]0.29423293
P-vector [y]0.87928770
P-vector [z]0.37453989
Q-vector [x]-0.95556668
Q-vector [y]0.26332390
Q-vector [z]0.13248712
absolute magnitude17.61
phase slope0.15
uncertainty0
referenceMPEC 2023-F16
observations used247
oppositions13
arc length (days)8822
first opposition used1999
last opposition used2023
residual rms (arc-secs)0.81
perturbers coarse indicatorM-v
perturbers precise indicator003Ek
first observation date used1999-01-18.0
last observation date used2023-03-15.0
computer nameMPCLINUX
JD of orbit computation2456552.273347
perihelion JD uncertainty (days)3.6989E-04
argument of perihelion uncertainty (°)8.7589E-04
ascending node uncertainty (°)8.7193E-04
inclination uncertainty (°)1.4500E-05
eccentricity uncertainty 1.0220E-07
perihelion distance uncertainty (AU)2.6531E-07
Minimum Orbit Intersection Distances (in AU)
for orbit epoch: 2460000.5, reference: E2023-F16
Mercury1.85502
Venus1.44148
Earth1.17589
Mars0.59914
Jupiter2.371
Saturn6.86822
Uranus15.8452
Neptune27.4624

Observations

251 total observations over interval: 1999 01 18.42371 – 2023 03 15.263384
These data are available for download (format description).

Date (UT) J2000 RA J2000 Dec Magn Location Ref
1999 01 18.42371 09 24 57.66 +16 17 29.1 20.9 V 691 – Steward Observatory, Kitt Peak-Spacewatch MPS 384132
1999 01 18.44594 09 24 56.63 +16 17 34.6 20.3 V 691 – Steward Observatory, Kitt Peak-Spacewatch MPS 384132
1999 01 18.47031 09 24 55.26 +16 17 41.2 20.9 V 691 – Steward Observatory, Kitt Peak-Spacewatch MPS 384132
2003 01 30.25121 09 12 07.40 +17 22 32.1 20.8 V 291 – LPL/Spacewatch II MPS 71968
2003 01 30.27575 09 12 05.94 +17 22 39.5 21.0 V 291 – LPL/Spacewatch II MPS 71968
2003 01 30.30517 09 12 04.14 +17 22 47.9 20.8 V 291 – LPL/Spacewatch II MPS 71968
2003 01 31.30207 09 11 05.18 +17 27 35.8 20.5   644 – Palomar Mountain/NEAT MPS 71968
2003 01 31.38692 09 10 59.96 +17 28 00.7 20.3   644 – Palomar Mountain/NEAT MPS 71968
2003 01 31.46105 09 10 55.43 +17 28 21.3 20.3   644 – Palomar Mountain/NEAT MPS 71968
2005 08 30.32911 22 22 48.64 -11 44 04.6 21.1 g 568 – Maunakea MPS 384132
2005 08 30.35664 22 22 47.09 -11 44 13.6 21.0 g 568 – Maunakea MPS 384132
2005 08 30.38254 22 22 45.63 -11 44 22.0 21.0 g 568 – Maunakea MPS 384132
2006 11 27.44824 09 25 19.16 +15 38 41.3 21.8 V G96 – Mt. Lemmon Survey MPS 384132
2006 11 27.45398 09 25 19.38 +15 38 40.4 21.6 V G96 – Mt. Lemmon Survey MPS 384132
2006 11 27.46096 09 25 19.74 +15 38 38.7 22.2 V G96 – Mt. Lemmon Survey MPS 384132
2006 11 27.46662 09 25 19.92 +15 38 38.2 22.2 V G96 – Mt. Lemmon Survey MPS 384132
2007 02 08.28094 09 02 47.36 +18 06 25.7 19.9 V G96 – Mt. Lemmon Survey MPS 384132
2007 02 08.28936 09 02 46.89 +18 06 27.7 20.1 V G96 – Mt. Lemmon Survey MPS 384132
2007 02 08.29781 09 02 46.35 +18 06 29.9 20.2 V G96 – Mt. Lemmon Survey MPS 384132
2007 02 08.30613 09 02 45.85 +18 06 32.2 20.6 V G96 – Mt. Lemmon Survey MPS 384132
2010 12 08.48736 09 27 51.66 +15 32 58.2 21.0 V G96 – Mt. Lemmon Survey MPS 384132
2010 12 08.49321 09 27 51.80 +15 32 57.9 21.4 V G96 – Mt. Lemmon Survey MPS 384132
2010 12 08.49911 09 27 51.87 +15 32 57.3 21.2 V G96 – Mt. Lemmon Survey MPS 384132
2010 12 08.50483 09 27 52.02 +15 32 57.0 21.3 V G96 – Mt. Lemmon Survey MPS 384132
2011 01 30.47808 09 06 11.856 +17 47 19.60 20.6 w F51 – Pan-STARRS 1, Haleakala MPS 378808
2011 01 30.49318 09 06 10.923 +17 47 23.73 20.8 w F51 – Pan-STARRS 1, Haleakala MPS 378808
2011 01 30.50943 09 06 09.913 +17 47 28.42 20.8 w F51 – Pan-STARRS 1, Haleakala MPS 378808
2011 02 05.31666 09 00 23.79 +18 14 21.4 19.9 V 703 – Catalina Sky Survey MPS 369738
2011 02 05.32793 09 00 23.14 +18 14 23.7 19.7 V 703 – Catalina Sky Survey MPS 369738
2011 02 05.33920 09 00 22.35 +18 14 27.7 19.5 V 703 – Catalina Sky Survey MPS 369738
2011 02 09.29496 08 56 31.59 +18 31 39.9 20.6 V G96 – Mt. Lemmon Survey MPS 369738
2011 02 09.30056 08 56 31.23 +18 31 41.0 20.5 V G96 – Mt. Lemmon Survey MPS 369738
2011 02 09.30612 08 56 30.91 +18 31 43.0 20.3 V G96 – Mt. Lemmon Survey MPS 369738
2011 02 09.31168 08 56 30.58 +18 31 44.1 20.2 V G96 – Mt. Lemmon Survey MPS 369738
2011 02 10.03083 08 55 49.57 +18 34 43.7 19.6 R I89 – iTelescope Observatory, Nerpio MPS 369738
2011 02 10.04130 08 55 48.95 +18 34 46.6 19.9 R I89 – iTelescope Observatory, Nerpio MPS 369738
2011 02 10.05387 08 55 48.20 +18 34 49.8 19.7 R I89 – iTelescope Observatory, Nerpio MPS 369738
2012 05 23.30179 15 50 16.54 -19 14 06.6 20.5 V G96 – Mt. Lemmon Survey MPS 425010
2012 05 23.30868 15 50 16.08 -19 14 05.8 21.2 V G96 – Mt. Lemmon Survey MPS 425010
2012 05 23.31556 15 50 15.64 -19 14 04.3 21.6 V G96 – Mt. Lemmon Survey MPS 425010
2012 05 23.32255 15 50 15.32 -19 14 03.3 21.2 V G96 – Mt. Lemmon Survey MPS 425010
2013 08 09.44639 22 37 31.319 -10 10 07.93 21.1 w F51 – Pan-STARRS 1, Haleakala MPS 473052
2013 08 09.46064 22 37 30.665 -10 10 11.86 21.2 w F51 – Pan-STARRS 1, Haleakala MPS 473052
2013 08 09.47489 22 37 30.032 -10 10 15.96 21.0 w F51 – Pan-STARRS 1, Haleakala MPS 473052
2013 08 09.48913 22 37 29.392 -10 10 19.99 21.2 w F51 – Pan-STARRS 1, Haleakala MPS 473052
2013 08 30.42956 22 19 49.214 -12 00 25.11 21.0 g F51 – Pan-STARRS 1, Haleakala MPS 476144
2013 08 30.44151 22 19 48.525 -12 00 28.99 20.9 g F51 – Pan-STARRS 1, Haleakala MPS 476144
2013 08 31.40849 22 18 56.109 -12 05 36.34 20.6 w F51 – Pan-STARRS 1, Haleakala MPS 476144
2013 08 31.42300 22 18 55.290 -12 05 40.86 20.6 w F51 – Pan-STARRS 1, Haleakala MPS 476144
2013 08 31.43746 22 18 54.465 -12 05 45.50 20.7 w F51 – Pan-STARRS 1, Haleakala MPS 476144
2013 08 31.45193 22 18 53.658 -12 05 50.10 20.6 w F51 – Pan-STARRS 1, Haleakala MPS 476144
2014 11 19.49408 09 13 07.01 +16 28 38.7 20.0 V G96 – Mt. Lemmon Survey MPS 547549
2014 11 19.49867 09 13 07.08 +16 28 38.1 20.2 V G96 – Mt. Lemmon Survey MPS 547549
2014 11 19.50326 09 13 07.38 +16 28 37.1 21.2 V G96 – Mt. Lemmon Survey MPS 547549
2014 11 19.50785 09 13 07.56 +16 28 36.9 21.3 V G96 – Mt. Lemmon Survey MPS 547549
2015 01 16.39052 09 16 05.71 +16 55 04.2 20.2 V G96 – Mt. Lemmon Survey MPS 562417
2015 01 16.39838 09 16 05.33 +16 55 06.3 20.0 V G96 – Mt. Lemmon Survey MPS 562417
2015 01 16.40623 09 16 04.94 +16 55 08.4 20.0 V G96 – Mt. Lemmon Survey MPS 562417
2015 01 16.41408 09 16 04.51 +16 55 10.4 20.4 V G96 – Mt. Lemmon Survey MPS 562417
2015 01 17.57142 09 15 06.991 +17 00 15.70 20.4 w F51 – Pan-STARRS 1, Haleakala MPS 586992
2015 01 17.58372 09 15 06.340 +17 00 18.87 20.3 w F51 – Pan-STARRS 1, Haleakala MPS 586992
2015 01 17.59608 09 15 05.690 +17 00 22.08 20.5 w F51 – Pan-STARRS 1, Haleakala MPS 586992
2015 01 17.60848 09 15 05.042 +17 00 25.37 20.5 w F51 – Pan-STARRS 1, Haleakala MPS 586992
2015 01 20.31055 09 12 44.99 +17 12 34.3 20.4 r I41 – Palomar Mountain--ZTF MPS 569468
2015 01 20.31758 09 12 44.60 +17 12 36.1 20.2 r I41 – Palomar Mountain--ZTF MPS 569468
2015 01 20.32461 09 12 44.21 +17 12 38.1 20.3 r I41 – Palomar Mountain--ZTF MPS 569468
2015 01 20.33162 09 12 43.80 +17 12 40.3 20.4 r I41 – Palomar Mountain--ZTF MPS 569468
2015 01 20.33865 09 12 43.42 +17 12 42.1 20.3 r I41 – Palomar Mountain--ZTF MPS 569468
2015 01 20.34565 09 12 43.03 +17 12 43.9 20.3 r I41 – Palomar Mountain--ZTF MPS 569468
2015 01 20.35269 09 12 42.63 +17 12 45.9 20.4 r I41 – Palomar Mountain--ZTF MPS 569468
2015 01 20.35970 09 12 42.23 +17 12 47.8 20.6 r I41 – Palomar Mountain--ZTF MPS 569468
2015 01 20.36673 09 12 41.85 +17 12 49.6 20.5 r I41 – Palomar Mountain--ZTF MPS 569468
2015 01 20.37375 09 12 41.45 +17 12 51.7 20.5 r I41 – Palomar Mountain--ZTF MPS 569468
2015 01 20.38082 09 12 41.07 +17 12 53.7 20.5 r I41 – Palomar Mountain--ZTF MPS 569468
2015 01 20.38786 09 12 40.66 +17 12 55.5 20.5 r I41 – Palomar Mountain--ZTF MPS 569468
2015 01 20.39124 09 12 40.41 +17 12 55.7 20.5 r G45 – Space Surveillance Telescope, Atom Site MPS 579873
2015 01 20.39490 09 12 40.28 +17 12 57.5 20.4 r I41 – Palomar Mountain--ZTF MPS 569468
2015 01 20.39538 09 12 40.17 +17 12 57.2 20.0 r G45 – Space Surveillance Telescope, Atom Site MPS 579873
2015 01 20.39946 09 12 39.95 +17 12 59.3 20.2 r G45 – Space Surveillance Telescope, Atom Site MPS 579873
2015 01 20.40194 09 12 39.87 +17 12 59.5 20.1 r I41 – Palomar Mountain--ZTF MPS 569468
2015 01 20.40431 09 12 39.67 +17 12 59.8 20.2 r G45 – Space Surveillance Telescope, Atom Site MPS 579873
2015 01 20.40852 09 12 39.44 +17 13 00.9 20.1 r G45 – Space Surveillance Telescope, Atom Site MPS 579873
2015 01 20.40897 09 12 39.49 +17 13 01.4 20.3 r I41 – Palomar Mountain--ZTF MPS 569468
2015 01 20.41273 09 12 39.22 +17 13 02.7 19.9 r G45 – Space Surveillance Telescope, Atom Site MPS 579873
2015 01 20.41601 09 12 39.08 +17 13 03.2 20.3 r I41 – Palomar Mountain--ZTF MPS 569468
2015 01 20.41883 09 12 38.86 +17 13 04.2 20.0 r G45 – Space Surveillance Telescope, Atom Site MPS 579873
2015 01 20.42290 09 12 38.62 +17 13 04.8 20.4 r G45 – Space Surveillance Telescope, Atom Site MPS 579873
2015 01 20.42306 09 12 38.70 +17 13 05.1 20.4 r I41 – Palomar Mountain--ZTF MPS 569468
2015 01 20.42712 09 12 38.39 +17 13 06.4 20.3 r G45 – Space Surveillance Telescope, Atom Site MPS 579873
2015 01 20.43011 09 12 38.27 +17 13 07.3 20.5 r I41 – Palomar Mountain--ZTF MPS 569468
2015 01 20.43717 09 12 37.90 +17 13 08.9 20.4 r I41 – Palomar Mountain--ZTF MPS 569468
2015 01 20.44420 09 12 37.50 +17 13 11.0 20.2 r I41 – Palomar Mountain--ZTF MPS 569468
